Theta_e
355 353 350 346 341 335 330 326 324 324 324 325 325 325 325 326 326 326 326 328 332 333 333 333 335 337 336 335 337 341 342 341 340 339 338 339 340 340 340 340 340 339 339 340 341 341 344 349 351 352 350 343 339 342 342 338 336 337 344 348 349 347 346 344 342 335 332 332 330 328 329 330 329 330 332 331 331 333 336 339 341 342 344 346 349
357 355 352 349 345 340 335 331 328 325 324 324 325 325 325 326 325 326 327 330 333 334 334 333 334 337 339 338 336 338 341 341 341 340 338 338 339 340 340 339 338 338 338 338 339 341 343 346 347 348 348 342 337 338 339 339 338 341 349 354 355 354 352 350 347 341 334 332 330 329 330 331 330 330 333 332 331 333 335 338 342 344 346 348 351
358 357 355 352 349 345 341 337 332 329 326 325 325 326 325 326 326 328 329 331 333 335 334 334 333 335 338 339 337 338 339 340 341 340 340 339 339 339 340 340 338 337 336 336 337 338 340 342 342 342 341 339 337 337 337 338 339 342 348 354 355 355 354 353 350 347 341 336 333 331 331 332 330 330 332 331 333 335 339 342 345 348 350 352 352
359 358 357 355 352 350 346 342 337 333 330 328 327 327 327 328 328 330 332 333 334 335 336 335 334 335 336 337 337 338 338 338 339 339 339 339 339 339 338 339 338 337 337 336 335 335 336 337 337 336 335 335 335 336 335 336 337 340 345 350 353 355 355 354 353 349 346 339 333 330 331 330 329 330 332 333 335 340 345 349 351 352 353 353 352
360 360 359 358 357 353 350 347 343 339 336 333 331 331 331 332 332 333 334 335 335 337 337 337 337 336 336 335 336 337 338 337 338 338 338 338 339 339 339 338 338 338 337 337 337 337 337 338 338 336 335 335 335 335 334 335 336 337 338 340 344 347 348 349 348 344 340 336 332 331 331 330 329 329 332 337 339 342 348 352 353 354 353 351 351
362 362 360 360 358 357 354 351 347 343 340 337 336 335 335 336 336 336 336 336 338 339 339 339 338 338 336 335 335 336 337 337 337 337 337 338 339 339 339 340 339 338 337 337 337 338 339 339 339 338 338 337 336 336 336 336 336 337 337 337 337 338 339 340 338 336 335 335 335 333 330 331 331 329 333 340 342 346 352 352 351 351 350 349 349
363 363 362 361 360 358 356 353 350 346 342 339 339 339 339 339 339 338 338 340 341 341 340 339 338 337 337 336 335 335 336 337 337 337 337 338 337 338 339 339 340 340 339 338 337 337 338 338 337 337 337 336 336 336 336 336 337 337 338 337 336 337 337 337 336 337 338 337 336 332 330 331 332 331 333 338 341 348 355 352 348 348 349 349 348
364 364 364 363 361 360 358 355 352 349 345 342 340 341 341 342 342 342 343 344 344 343 340 338 339 338 337 338 336 335 335 336 336 336 337 337 336 337 337 338 339 339 340 339 338 337 336 336 336 336 335 334 334 334 335 336 338 338 337 337 337 338 337 336 337 337 337 335 332 331 331 331 331 331 332 335 341 348 351 348 346 346 347 348 348
364 365 364 364 363 361 359 357 355 351 348 345 343 343 343 345 346 346 346 346 345 344 342 340 339 338 338 338 338 337 336 336 336 335 335 336 335 335 335 335 337 337 338 338 338 336 335 334 334 334 333 332 330 331 333 335 338 338 337 337 337 337 337 337 336 335 333 332 331 331 331 330 330 330 331 335 343 346 344 344 345 347 349 350 352
365 365 365 364 364 363 361 359 356 354 351 348 345 345 346 348 349 348 347 345 344 346 346 345 342 340 339 339 339 339 337 335 336 336 336 335 334 334 334 334 334 335 336 337 336 336 335 334 332 332 332 331 329 331 334 339 342 342 340 339 338 337 336 335 333 332 332 332 332 331 331 329 329 330 331 333 338 340 342 344 347 350 352 353 356
365 365 365 365 364 364 362 360 358 356 354 351 349 348 349 350 350 350 348 346 345 345 348 349 348 344 342 340 339 339 337 336 335 335 336 336 335 334 334 333 334 334 334 334 334 335 334 333 333 333 332 331 330 331 336 343 346 346 345 343 340 339 339 338 337 336 336 336 333 331 330 329 329 330 330 333 336 340 344 348 351 353 354 356 358
366 365 366 365 365 365 364 362 360 357 355 353 351 350 350 351 352 351 350 349 348 347 348 351 351 348 346 344 340 339 336 334 334 335 335 335 335 335 334 333 334 334 334 334 334 333 334 334 333 333 333 334 335 337 342 346 348 346 345 342 340 341 341 340 340 338 337 337 335 331 329 329 330 330 333 338 342 345 348 351 353 355 356 357 357
365 366 366 366 365 365 364 363 361 358 356 354 353 352 352 352 352 352 352 352 352 350 349 351 352 352 350 348 344 341 338 334 334 334 335 335 335 335 335 335 334 334 335 335 335 335 334 335 335 335 334 334 338 342 345 345 345 345 344 343 344 343 342 340 338 337 337 337 336 331 328 331 331 332 336 342 346 348 350 352 354 355 357 358 354
365 366 366 366 366 365 365 364 362 360 358 356 354 353 353 353 353 353 354 355 355 354 352 351 353 354 353 351 349 345 341 337 335 335 334 335 335 335 336 336 336 336 336 335 335 335 335 335 335 335 335 336 338 343 346 346 345 345 345 345 346 344 342 339 336 335 335 335 333 329 329 332 333 333 337 343 347 351 353 354 355 356 357 358 351
364 366 366 366 366 365 365 364 363 362 359 357 356 355 354 354 354 354 355 356 356 355 354 352 352 353 354 354 352 350 346 341 339 338 337 336 336 337 338 340 339 339 338 337 336 335 335 335 336 336 337 338 339 343 347 348 347 347 347 347 345 344 341 336 333 333 333 333 331 330 329 330 333 336 339 344 348 352 355 356 355 357 358 355 349
363 365 366 366 366 365 364 364 364 362 360 358 357 356 355 355 355 355 356 356 356 357 356 354 353 353 353 354 354 352 350 346 344 343 343 342 342 342 343 344 344 343 341 340 338 337 336 337 338 338 337 336 336 338 342 344 345 346 346 346 346 344 339 334 332 332 333 332 330 330 328 329 334 340 344 346 350 354 356 356 356 357 356 352 347
363 363 364 365 365 365 364 364 363 362 362 360 357 357 356 355 356 356 356 357 357 357 357 356 354 353 353 354 354 353 352 349 348 347 346 348 349 349 348 348 347 346 344 343 342 341 340 340 341 340 338 335 333 334 339 343 343 342 342 342 343 343 337 333 333 333 333 332 331 330 329 331 337 344 348 350 352 355 357 356 355 355 353 348 343
361 362 363 364 365 365 364 364 363 363 362 361 359 358 357 356 356 356 356 357 357 357 356 356 356 354 352 353 353 355 354 352 350 350 350 352 353 353 354 353 352 350 348 348 347 346 344 344 344 344 340 335 334 335 340 345 346 344 342 341 342 341 336 332 333 333 331 332 331 330 330 333 339 346 350 351 354 356 357 355 352 350 347 343 341
359 361 361 362 365 365 364 364 363 363 363 362 361 359 358 357 356 355 356 357 356 357 356 356 356 355 354 353 352 354 355 355 354 353 355 355 355 356 357 358 358 356 353 351 350 348 347 344 344 344 341 337 337 338 340 345 346 345 346 348 348 343 336 334 335 335 334 334 333 332 333 336 344 349 351 352 353 355 355 351 347 345 343 341 340
358 359 360 361 363 365 365 364 363 363 364 362 361 361 359 359 358 357 356 356 356 357 356 356 356 356 355 354 352 353 354 355 356 356 355 356 357 358 359 360 359 357 354 351 350 348 346 344 342 341 339 337 338 338 338 341 342 342 345 348 347 340 335 337 338 337 338 338 335 334 336 342 347 351 351 351 351 353 353 349 346 345 344 342 341
357 358 358 360 362 363 365 364 364 364 364 363 363 362 361 360 359 358 356 356 356 357 357 357 357 356 356 356 355 354 353 353 354 354 355 356 357 358 359 359 357 354 350 348 348 347 345 343 341 339 337 336 336 335 335 335 336 337 339 341 339 336 336 338 338 339 340 340 338 340 342 347 350 351 352 353 352 352 352 350 349 349 345 342 340
358 358 359 360 360 363 365 365 365 364 364 364 363 362 362 361 360 359 358 356 356 357 357 357 357 357 357 357 356 356 355 354 352 352 351 352 354 357 357 356 352 349 348 347 347 346 344 342 339 337 336 336 336 336 336 335 335 335 335 335 335 336 338 339 338 340 341 341 342 344 348 351 353 354 355 354 352 352 350 347 347 347 343 340 339
357 356 359 360 359 361 364 365 366 365 365 364 363 364 364 362 361 360 359 358 357 356 357 358 358 359 359 358 358 357 356 356 355 354 352 352 351 353 353 351 348 348 349 349 348 346 344 341 338 336 335 337 337 336 336 336 336 335 335 335 337 338 339 341 341 341 343 345 346 346 348 351 353 355 355 353 352 354 351 347 344 343 340 339 337
357 355 358 360 358 360 362 365 365 366 366 365 365 365 365 364 362 361 360 359 357 356 357 358 359 360 360 360 359 359 357 358 356 354 353 352 351 351 351 351 350 350 351 351 350 348 346 343 340 338 338 338 338 339 339 338 338 337 337 339 340 341 342 344 343 344 345 347 347 347 348 350 352 354 354 352 353 355 353 349 345 341 340 340 336
356 354 357 359 359 359 361 363 365 366 366 366 365 365 366 365 364 363 361 360 359 357 356 356 358 360 361 360 360 359 358 357 356 355 354 353 352 352 353 353 354 353 353 354 353 351 349 346 343 343 343 342 342 342 343 342 341 341 342 345 346 347 346 346 347 349 348 348 347 348 348 349 350 351 352 352 353 355 354 351 346 343 343 340 331
356 354 359 360 359 360 361 364 365 366 366 367 366 366 366 366 365 364 363 362 360 358 357 356 357 359 360 360 359 357 357 357 356 356 355 355 354 354 354 356 356 356 356 356 356 355 353 352 350 350 348 347 346 346 346 347 348 348 349 350 352 351 351 349 349 350 350 349 348 347 346 346 346 348 351 352 354 355 354 350 347 345 342 334 324
356 356 360 361 360 360 362 363 365 367 367 367 367 367 366 366 366 365 365 363 361 359 358 356 356 357 358 360 359 357 356 356 356 356 355 356 356 357 356 357 357 357 358 359 358 358 356 355 355 354 353 352 351 351 353 354 354 354 355 355 355 355 354 354 353 353 352 351 349 348 347 347 348 350 352 353 354 353 350 349 348 343 336 327 322
356 358 361 361 361 361 361 363 364 366 367 367 367 367 368 366 366 366 366 364 363 361 359 357 356 355 355 357 358 358 357 357 355 353 353 353 354 356 356 356 357 358 358 357 357 358 358 358 358 357 356 355 354 355 356 357 358 358 358 358 359 358 358 358 357 356 355 352 350 349 349 350 351 352 353 353 351 349 348 348 345 337 328 323 322
357 361 362 362 361 361 361 363 364 365 367 367 368 367 367 366 366 366 366 365 364 362 360 358 355 353 352 353 354 356 357 355 351 349 348 348 349 351 351 351 353 355 355 355 356 358 359 359 359 358 358 357 356 355 356 357 359 360 360 360 360 360 360 359 358 357 356 354 352 350 350 351 352 352 352 351 349 346 347 346 339 331 325 324 323
358 362 364 363 361 361 362 363 364 365 366 367 367 367 367 367 367 367 367 367 366 364 362 358 354 351 350 348 348 348 347 346 344 345 346 345 345 345 346 347 349 351 353 354 358 359 359 360 359 359 358 358 357 356 356 356 358 359 360 360 360 360 360 359 358 357 356 355 354 352 351 351 352 352 351 349 346 345 343 340 334 330 327 324 323
363 364 364 363 362 362 363 363 364 366 366 366 367 368 368 368 369 368 368 368 367 366 363 361 356 353 350 348 345 344 343 341 342 343 344 345 345 347 348 349 351 353 355 357 359 360 360 360 360 359 359 358 358 358 357 356 356 357 358 359 359 359 359 358 357 357 355 354 354 353 352 352 353 353 351 348 345 343 339 335 332 330 329 326 326
367 365 364 364 363 363 363 364 364 365 366 367 367 368 368 369 369 370 369 368 367 366 364 363 360 356 353 349 346 345 345 346 346 346 346 347 348 349 351 352 353 356 358 359 360 360 361 361 361 360 360 360 359 359 359 359 357 356 356 356 357 357 357 357 356 354 352 351 352 353 353 353 353 353 350 345 343 340 336 332 329 328 329 331 331
369 368 366 366 366 366 365 365 365 365 365 366 367 368 369 369 369 369 369 368 368 366 366 364 362 359 356 353 351 349 348 348 349 349 350 351 351 351 352 353 355 358 360 361 361 361 361 361 361 361 361 360 360 360 359 358 357 356 355 355 355 356 356 355 355 353 351 351 352 353 353 352 352 352 348 344 341 339 334 328 326 328 332 335 334
368 368 367 367 365 364 364 364 364 364 364 365 366 368 369 369 369 369 369 369 367 366 366 364 363 361 358 357 355 354 353 353 353 353 353 353 354 355 355 356 358 360 362 362 362 362 362 362 362 362 361 361 360 360 360 359 358 357 356 355 356 356 355 354 354 352 351 352 353 353 352 351 352 350 346 342 340 337 331 327 329 333 335 336 335
366 367 366 366 364 362 362 362 361 360 360 361 363 366 367 368 369 369 369 368 368 366 366 364 363 362 361 360 359 358 358 358 358 358 357 356 356 358 360 360 361 362 362 363 363 363 363 363 362 362 361 362 361 360 360 359 358 357 356 356 356 355 355 355 354 352 351 351 352 351 350 349 347 345 342 338 336 332 328 327 332 335 336 336 335
364 365 365 366 364 363 363 362 360 358 357 358 361 363 364 365 367 368 368 368 368 367 366 364 363 363 362 362 361 361 361 360 360 361 360 359 359 360 362 362 362 362 363 363 363 363 363 363 363 362 362 362 361 360 360 360 359 357 357 357 355 355 355 355 353 353 352 351 350 348 346 344 343 341 338 335 333 331 330 332 335 335 335 334 334
361 363 364 364 364 364 363 363 362 361 359 359 361 362 362 363 364 366 367 368 368 367 366 365 364 364 363 363 363 362 362 360 361 362 362 361 361 362 362 362 362 363 363 363 364 363 364 364 363 363 363 362 361 361 360 360 358 357 356 355 355 355 355 355 354 354 352 351 348 345 343 342 340 338 335 333 334 335 335 335 335 335 334 333 332
358 361 363 363 363 364 364 363 363 362 361 361 361 361 362 361 361 363 365 367 367 367 366 365 364 363 363 363 363 362 362 361 361 362 363 363 363 363 364 363 363 363 364 364 364 364 364 364 363 363 363 362 361 360 360 359 359 357 356 354 354 354 355 354 353 351 349 348 347 344 342 341 338 335 333 333 333 333 334 334 334 334 333 332 331
353 359 362 362 362 362 363 363 362 362 361 361 361 361 361 361 361 362 363 365 367 367 366 364 363 362 362 361 361 361 361 362 362 362 363 362 363 363 364 364 364 365 365 364 364 364 364 364 363 363 362 362 361 360 360 359 358 357 356 355 354 353 354 353 351 348 347 347 346 343 341 339 336 334 333 332 329 330 332 334 334 333 332 332 331
347 354 358 361 362 362 361 362 362 360 360 360 361 361 362 362 361 360 361 362 365 366 366 365 364 363 363 362 361 361 361 362 362 363 363 362 363 363 364 365 364 364 365 364 364 364 363 363 362 362 362 361 361 361 360 360 359 358 357 355 354 353 353 353 352 350 347 346 344 341 338 335 333 333 333 330 327 328 331 333 333 332 332 331 330
344 349 353 356 358 359 359 359 359 359 359 359 359 359 360 361 358 356 358 360 364 365 365 365 364 363 363 362 362 361 361 361 361 362 363 363 363 364 364 365 364 365 364 364 363 363 362 362 361 361 361 361 360 360 359 359 359 358 355 353 353 352 351 351 351 349 344 342 341 339 337 335 334 333 331 329 328 328 330 331 331 331 331 330 329
341 347 351 353 354 355 356 356 357 358 359 358 358 358 358 360 359 357 356 359 363 365 365 364 364 364 364 364 363 362 362 362 362 362 363 363 363 364 364 364 363 363 362 362 361 361 361 361 360 360 359 359 359 358 357 356 355 353 351 351 351 350 348 347 346 344 341 340 339 337 336 335 333 330 328 328 330 331 331 331 331 331 330 330 329
339 344 348 350 350 351 352 353 355 357 358 358 358 359 359 360 360 360 359 360 362 365 364 364 364 364 363 363 363 363 362 362 361 362 362 362 363 363 363 362 362 361 361 360 360 360 360 359 358 357 358 357 356 355 353 350 348 347 346 346 346 345 344 342 340 339 338 336 334 332 331 331 330 329 329 329 331 332 331 330 330 330 329 329 329
337 341 343 343 343 344 346 350 353 354 356 358 359 359 359 359 359 360 360 360 361 363 364 363 363 363 363 362 362 362 361 361 360 360 360 360 360 360 359 359 359 359 358 358 358 357 358 357 356 355 354 354 352 351 348 345 343 343 342 342 341 340 341 340 337 335 334 331 329 329 330 331 331 332 332 332 331 331 331 330 330 330 329 329 328
334 338 339 339 339 339 341 345 350 351 351 352 354 355 356 357 357 357 357 358 359 360 360 361 361 361 360 360 359 358 358 358 357 357 357 356 355 355 355 356 356 356 355 355 355 355 355 355 353 352 350 349 348 346 343 341 341 340 340 339 339 338 338 337 335 333 331 331 330 331 332 332 333 332 332 331 331 331 331 330 329 329 329 329 328
333 334 336 337 337 338 337 339 344 346 345 344 345 347 349 351 352 352 353 356 358 357 357 357 357 357 358 356 356 355 355 354 354 354 353 352 351 351 351 350 351 352 352 351 351 352 350 349 348 347 346 345 344 343 341 340 339 339 337 337 337 337 336 336 334 331 331 332 332 332 332 332 332 332 331 330 330 329 328 328 327 327 327 327 326
332 332 333 334 334 336 335 334 337 341 342 340 341 342 344 346 348 349 351 352 353 353 353 352 353 353 353 352 351 350 350 351 351 350 349 348 347 347 347 347 348 348 348 347 346 345 343 342 342 343 342 341 341 340 338 337 337 336 335 334 334 333 332 331 330 330 331 332 332 332 332 332 332 331 330 329 328 327 326 326 325 325 325 324 324
332 331 331 331 332 332 333 332 333 335 336 336 338 340 342 344 345 345 345 346 346 346 346 345 345 345 345 345 344 344 345 345 345 344 343 342 341 342 342 342 342 341 341 341 340 338 337 337 337 337 338 338 337 335 334 333 333 331 330 330 330 329 329 329 329 330 331 331 331 331 330 330 330 330 329 328 327 325 324 324 324 323 323 323 322
330 330 330 330 330 330 330 331 331 330 330 331 334 336 337 339 340 340 339 340 341 341 341 341 340 339 339 339 338 338 338 337 337 337 337 337 337 336 336 336 336 337 337 337 336 334 332 332 332 333 334 333 332 331 330 329 329 329 329 329 329 329 329 329 330 330 330 331 331 330 329 329 329 328 327 326 325 324 323 323 322 322 322 322 321
328 329 329 330 329 328 328 329 330 329 330 331 331 330 330 331 333 334 335 337 337 337 337 337 336 335 335 335 334 334 333 332 332 332 332 332 332 332 333 333 333 333 333 333 332 330 329 329 330 331 331 330 329 328 328 328 328 329 329 329 329 328 328 328 328 328 328 328 328 327 327 327 325 324 324 324 324 323 323 323 322 322 322 322 321
327 327 327 327 328 327 327 327 328 328 328 329 329 327 325 325 326 328 330 331 331 330 330 330 330 329 329 330 330 329 328 328 327 328 329 329 330 330 330 331 330 329 329 329 328 328 327 327 328 329 329 328 328 327 327 327 327 327 326 326 325 325 325 326 325 325 325 324 324 325 324 324 323 323 324 324 324 323 323 323 323 323 322 322 322
Wind_Speed
47 49 49 49 49 48 46 44 42 42 41 41 41 40 39 37 34 32 29 27 25 24 24 24 23 23 23 23 21 20 19 19 19 19 19 18 18 17 17 17 16 15 14 15 14 13 13 13 14 13 12 12 11 10 10 9 8 7 5 5 7 7 8 9 12 12 9 8 10 11 11 13 14 14 14 15 14 14 14 13 12 12 14 15 16
47 47 48 49 49 49 48 46 45 43 42 42 41 41 40 38 36 34 32 29 28 26 26 26 25 23 24 24 23 22 21 20 20 20 20 19 19 19 18 18 18 17 16 16 16 15 15 14 15 16 15 13 11 11 11 11 11 9 7 7 8 9 10 11 13 16 16 14 14 15 14 15 16 15 15 15 15 15 14 13 12 14 17 18 19
46 46 47 48 49 49 49 48 47 46 45 44 43 42 41 39 37 36 34 32 29 28 28 28 27 25 24 25 25 24 23 22 21 21 21 21 21 20 20 19 19 19 19 18 17 17 16 16 15 16 15 14 12 12 11 12 12 11 10 10 11 11 11 12 14 16 19 19 18 17 16 16 16 16 15 15 17 17 16 15 15 17 19 19 21
45 46 46 47 48 49 49 49 48 48 47 46 45 43 42 40 39 37 35 34 31 30 29 29 29 27 26 26 26 26 25 24 23 23 22 21 21 21 21 20 20 20 19 19 18 18 18 17 17 15 14 14 14 13 13 12 12 12 12 13 14 14 12 13 15 17 20 21 19 16 16 16 17 16 16 17 18 18 17 17 17 18 19 20 22
45 45 46 47 48 49 50 50 49 49 48 47 45 44 42 41 40 38 37 35 33 31 31 31 31 30 28 27 27 27 26 25 25 24 23 22 22 22 21 21 21 20 19 19 19 19 19 18 18 17 16 15 15 15 14 13 13 13 13 13 14 15 15 16 17 18 20 20 18 16 16 17 18 17 17 18 19 18 17 16 17 19 20 22 23
44 44 44 45 48 49 50 50 50 49 48 47 45 44 43 41 40 39 38 36 35 33 32 32 33 31 29 28 28 28 28 26 25 25 24 23 22 22 22 22 22 21 20 19 19 19 19 19 18 17 17 17 17 17 16 15 14 14 14 14 14 15 16 16 17 17 18 18 18 18 18 18 19 19 18 18 18 18 17 18 19 21 23 25 25
42 42 42 43 45 48 50 50 50 50 49 47 45 44 43 42 41 40 39 38 37 36 34 34 33 32 30 29 29 29 29 28 27 26 25 24 23 23 23 23 23 23 22 20 19 19 19 19 19 18 18 18 17 17 17 16 16 16 15 15 14 15 16 15 15 16 17 18 19 20 20 19 20 20 19 18 18 17 17 20 23 24 25 26 26
42 42 43 43 44 46 48 49 49 49 48 47 45 44 43 42 41 40 39 39 39 38 36 35 34 32 31 30 29 30 30 30 30 28 27 26 24 24 24 24 24 24 23 22 20 20 19 19 19 19 19 18 17 17 17 17 18 18 17 16 16 16 16 16 16 16 17 19 19 19 20 21 21 21 21 20 19 18 18 22 25 26 26 25 24
42 43 43 44 44 44 45 47 48 48 48 47 46 45 44 42 42 40 40 40 41 40 38 36 35 33 32 31 30 30 31 32 31 30 29 28 27 26 25 25 25 25 25 23 22 21 20 19 19 19 18 18 18 17 17 17 17 18 17 17 17 17 17 17 17 17 18 19 20 19 21 22 22 22 22 21 20 20 22 24 26 25 25 23 22
41 42 43 44 43 42 43 45 47 47 48 47 46 45 44 43 42 41 40 40 41 42 40 38 37 35 33 33 32 32 32 33 32 31 30 29 28 27 26 26 26 26 26 26 25 24 22 21 20 19 18 18 18 17 16 15 15 16 15 16 17 17 18 18 19 19 19 20 20 20 22 23 22 22 23 22 21 22 23 24 24 22 22 23 23
41 41 42 43 42 42 42 43 45 47 47 47 47 46 44 43 42 42 41 39 40 41 41 40 39 37 34 33 33 33 33 33 33 32 31 30 29 29 28 27 26 27 27 27 26 26 25 24 23 22 21 21 19 17 16 16 16 16 16 17 17 18 19 20 20 21 21 22 21 21 22 24 23 22 22 22 21 21 21 21 21 21 22 25 26
40 41 42 43 43 42 42 42 43 46 47 47 47 46 45 44 43 43 42 40 39 40 42 42 40 38 36 35 34 34 33 32 32 32 32 31 30 30 29 28 28 28 27 27 26 26 25 25 24 23 23 22 21 20 20 20 20 20 19 19 18 18 19 20 21 21 21 22 22 22 22 23 23 21 19 18 18 19 19 18 18 20 22 24 26
39 41 42 43 44 43 42 42 43 44 46 47 47 46 46 45 44 44 43 41 40 39 41 42 41 39 37 36 35 34 33 31 31 31 31 31 30 31 30 30 29 29 28 28 27 26 26 25 25 24 23 21 21 22 22 23 22 21 21 20 19 19 20 20 21 21 21 22 22 23 22 20 21 20 16 16 17 18 17 17 18 20 22 24 24
39 41 42 43 44 44 43 43 43 44 44 46 47 47 47 47 46 45 44 43 42 40 40 41 41 40 39 37 36 35 33 31 30 31 31 30 30 30 31 31 31 30 30 29 28 27 26 26 26 25 24 23 23 23 23 23 23 22 23 22 22 22 22 22 22 22 22 22 22 23 21 18 19 18 16 15 17 17 17 18 19 21 23 23 22
38 39 42 45 44 44 45 44 43 44 44 45 47 47 48 47 47 46 45 44 44 43 41 41 42 42 40 39 37 36 35 32 30 30 30 30 30 30 31 31 31 31 31 30 30 29 27 27 27 26 26 25 25 26 26 26 25 25 24 24 25 25 25 24 23 23 23 23 22 22 21 19 18 17 16 16 16 16 17 18 19 21 23 22 21
38 39 41 45 46 45 45 45 44 44 45 46 47 48 48 48 48 47 46 45 45 44 43 42 42 43 42 41 39 38 37 34 31 30 29 28 29 30 31 31 31 31 31 31 31 30 29 29 28 27 27 26 25 25 27 29 29 29 28 27 27 28 28 26 25 24 24 24 23 22 21 20 18 17 16 16 16 16 17 18 19 20 21 22 21
37 40 41 43 46 47 46 46 46 45 45 47 48 49 49 49 49 48 47 46 45 45 45 44 42 43 43 43 42 40 39 36 33 31 29 28 28 29 29 30 30 31 31 31 31 31 31 30 29 28 27 26 25 24 24 26 29 30 31 30 30 30 30 27 26 26 25 24 23 22 22 20 19 17 16 16 17 17 17 18 18 18 19 21 20
37 40 42 43 45 47 47 46 46 46 47 48 49 49 49 49 49 49 49 48 46 46 46 45 44 43 43 44 44 42 40 38 36 33 30 28 28 28 28 28 29 29 30 31 32 32 32 31 29 29 29 27 26 25 24 25 26 28 29 29 30 31 30 27 26 26 26 25 24 23 23 21 19 18 17 17 17 16 16 18 17 16 18 18 18
38 40 42 42 43 46 48 48 47 47 48 48 49 49 49 49 49 50 50 49 47 46 45 45 45 44 43 43 44 43 41 38 36 34 32 30 29 29 28 28 28 28 28 29 30 31 33 33 32 32 31 30 28 28 27 27 28 29 28 29 30 31 29 27 27 28 27 27 26 25 23 21 19 18 18 18 17 15 15 16 15 15 16 16 17
37 40 41 41 42 44 47 49 49 48 48 48 48 48 49 48 49 50 51 50 48 46 45 45 46 45 44 43 43 44 43 41 38 36 33 31 30 30 30 30 30 29 29 29 29 29 31 32 33 33 33 33 32 31 30 30 30 30 30 30 31 30 28 27 28 28 28 28 27 25 23 21 20 20 20 19 17 16 15 14 13 14 15 16 17
35 39 42 42 43 44 47 49 50 49 48 47 47 47 48 48 49 50 51 51 49 46 45 44 45 45 44 43 43 43 44 44 42 40 38 35 33 31 32 33 32 31 31 31 31 30 29 29 30 32 33 33 33 33 32 32 31 31 31 32 31 30 28 28 28 28 28 28 27 24 23 22 22 21 21 20 18 17 16 13 13 15 17 17 17
32 37 43 44 43 44 46 48 49 48 47 47 47 47 47 47 48 49 50 51 50 48 45 43 43 44 44 44 43 43 43 43 43 43 42 41 38 36 36 36 35 34 33 34 33 31 28 26 26 27 29 31 33 33 33 32 32 32 32 31 30 30 30 30 29 29 28 28 26 25 24 24 23 22 21 19 19 18 15 12 13 16 17 16 17
31 35 41 45 45 45 45 47 48 48 47 47 47 47 47 47 47 48 49 51 51 50 47 44 43 43 43 43 43 43 42 42 41 40 40 40 40 39 39 38 36 35 35 35 33 30 27 25 24 24 26 28 30 31 31 31 32 32 31 30 30 30 30 31 30 30 30 29 27 27 26 25 24 23 20 18 18 18 15 13 14 15 15 15 19
31 34 40 46 47 46 47 47 47 47 48 47 47 47 46 47 47 48 49 50 51 51 50 47 44 43 43 42 42 42 41 41 40 39 37 36 36 37 38 37 36 35 35 34 31 28 26 25 24 24 24 25 26 27 28 29 30 29 28 28 27 27 28 29 30 30 30 30 29 29 28 27 26 24 21 18 18 18 17 17 17 17 17 19 21
31 34 40 47 49 48 47 47 47 47 47 47 48 48 47 47 48 48 49 50 51 52 52 50 47 45 44 43 42 41 40 39 39 37 35 34 33 32 33 34 33 33 33 31 28 26 25 25 25 25 26 26 26 26 27 27 27 27 26 25 25 25 27 27 28 29 30 30 30 29 29 28 27 25 22 19 19 18 18 19 20 21 21 22 19
31 34 39 47 50 49 48 48 48 48 48 47 48 48 47 47 48 49 50 51 52 52 53 52 50 47 45 44 43 40 39 38 38 36 35 34 33 31 30 30 30 30 29 28 26 26 26 27 27 27 27 27 28 28 27 26 25 25 25 25 25 25 26 26 27 28 28 28 28 28 27 25 23 21 20 18 18 19 20 20 22 23 22 19 14
32 34 40 48 51 49 49 49 48 48 48 48 48 48 47 47 47 49 51 52 53 53 53 53 53 51 48 45 44 41 40 38 38 37 36 35 33 32 30 29 29 29 29 28 27 28 29 29 30 30 30 30 30 29 27 26 25 25 25 26 26 26 25 25 25 25 25 25 25 23 21 18 16 16 16 17 19 20 20 20 22 22 19 15 11
33 36 41 49 51 50 50 51 50 49 49 48 47 47 47 47 48 50 53 54 54 55 55 55 55 54 52 48 44 42 41 41 40 39 38 36 34 32 31 31 30 31 30 29 28 29 30 32 32 32 31 32 32 32 31 29 28 27 27 27 27 26 25 24 24 23 22 22 20 18 16 15 15 15 16 18 20 21 21 21 21 19 16 12 9
33 37 44 50 52 52 52 51 50 49 48 48 48 47 47 47 48 50 52 53 53 54 55 56 56 55 54 51 48 46 45 45 45 43 39 37 34 32 32 31 31 31 30 28 27 29 32 33 34 33 33 33 34 34 34 33 31 30 29 29 28 27 26 25 25 23 21 19 18 17 16 16 17 18 19 21 22 22 22 21 18 14 11 9 7
34 39 46 51 52 52 53 52 50 49 47 46 46 46 46 46 47 48 49 50 51 52 53 54 54 53 52 51 50 49 46 44 43 43 40 38 36 35 33 32 30 30 28 27 28 31 33 33 33 33 33 33 34 35 35 35 35 33 30 29 29 28 28 27 25 23 21 20 20 19 18 18 20 21 21 21 23 23 21 17 12 10 10 9 7
37 42 48 52 53 52 52 50 48 47 47 46 45 45 46 46 46 48 48 48 48 49 50 51 51 50 49 48 48 47 45 42 41 41 40 39 38 36 35 33 31 29 27 27 30 33 34 34 33 32 32 33 33 33 33 34 35 35 33 31 30 29 29 28 25 23 22 23 23 22 20 20 20 21 21 22 23 22 18 13 10 9 9 8 7
38 45 48 50 51 51 50 49 48 47 45 44 43 44 46 47 47 48 48 48 47 48 48 49 49 48 48 46 45 45 44 43 42 41 39 38 37 36 35 33 31 28 27 28 31 33 34 34 32 31 32 33 32 32 32 32 33 34 34 33 32 31 29 27 23 22 21 22 22 22 21 20 21 22 23 23 23 21 16 12 10 10 9 7 5
33 40 41 39 39 41 41 41 43 45 45 44 43 44 46 47 48 48 48 47 47 46 46 47 47 47 46 45 44 43 42 41 40 40 38 37 36 34 33 31 30 28 28 29 31 32 33 33 33 31 32 32 33 33 33 32 31 31 31 30 29 28 25 22 19 19 20 19 19 20 21 21 22 24 25 25 24 21 17 13 11 10 9 8 6
30 32 33 33 35 38 38 37 36 37 39 39 40 43 47 48 48 48 48 48 46 46 46 47 47 47 46 44 43 41 39 37 36 35 34 34 33 31 30 29 29 28 28 28 30 31 32 33 33 32 32 33 33 33 33 32 30 28 27 25 24 23 20 18 17 18 18 18 20 21 23 23 23 25 25 24 23 21 17 13 10 10 9 9 9
30 29 31 34 37 40 42 42 41 39 38 38 37 38 41 44 46 48 49 48 48 47 47 47 47 47 45 43 41 39 36 34 32 30 30 31 30 29 29 30 30 30 30 30 31 31 32 32 32 31 32 32 32 32 33 32 29 26 24 24 23 22 21 21 20 19 19 20 22 23 24 23 23 22 22 22 20 17 14 11 10 9 9 10 11
29 29 31 33 35 36 38 41 43 43 43 43 42 38 35 37 42 47 48 47 47 47 47 47 46 45 43 40 38 37 35 33 31 29 29 30 30 31 32 32 32 31 32 32 33 32 32 32 30 28 29 29 30 31 32 32 30 28 26 24 23 23 24 25 24 23 21 22 22 22 22 21 20 19 19 19 17 13 10 11 11 10 11 11 11
28 29 30 32 34 36 37 37 40 41 42 43 43 41 36 34 38 43 45 45 45 46 46 46 45 43 41 39 38 37 36 34 32 30 30 31 31 31 32 32 31 32 32 32 33 32 32 31 30 29 27 26 27 29 31 32 33 31 27 24 25 27 28 28 27 25 24 23 21 20 20 21 20 18 16 15 14 12 12 12 13 13 13 12 10
24 27 29 31 34 36 35 35 36 39 41 41 41 41 39 36 36 38 41 43 44 45 45 45 44 43 41 40 39 38 36 35 33 32 31 31 30 29 30 30 30 30 31 31 31 32 31 31 30 28 26 25 26 27 29 33 35 31 26 25 28 30 29 28 26 25 23 22 20 20 22 23 20 16 14 13 12 12 13 13 13 14 14 12 11
15 24 28 30 31 34 35 35 35 37 41 42 40 40 39 38 36 36 37 40 43 45 45 44 43 42 42 41 40 38 36 35 34 33 32 30 28 27 28 29 29 29 29 29 29 30 29 28 26 25 25 25 26 26 28 33 34 30 26 26 29 30 29 28 27 27 26 24 23 22 23 22 18 16 16 14 12 13 15 14 13 13 13 11 11
3 14 21 25 28 31 33 34 35 37 40 41 38 37 38 39 37 35 36 39 43 46 46 44 42 42 41 39 37 35 34 34 33 32 31 30 29 28 28 28 29 29 29 29 28 26 25 24 24 24 25 26 26 27 29 32 34 31 26 25 30 33 32 30 30 29 26 23 23 24 23 19 17 17 17 15 12 13 15 15 14 13 12 11 10
8 11 14 17 22 25 27 29 31 35 39 40 38 37 37 37 37 36 35 37 41 44 45 43 42 41 39 36 34 33 33 32 32 30 29 28 29 29 29 29 29 30 30 28 26 24 23 23 23 24 26 27 27 29 30 30 31 29 24 24 29 32 31 31 31 28 21 19 22 23 20 18 18 18 16 13 12 13 16 17 16 14 12 11 11
10 14 14 15 16 18 22 25 29 33 37 37 37 38 38 37 37 38 36 36 40 43 43 42 40 38 36 34 33 33 32 31 30 29 28 28 29 29 30 30 30 29 28 26 24 23 23 24 25 26 28 28 28 28 26 24 22 21 20 24 28 28 26 26 25 23 19 19 21 20 19 19 18 15 14 13 13 14 16 17 16 14 13 13 12
10 12 14 15 17 17 19 23 26 30 33 33 34 37 39 38 38 40 40 40 42 44 42 39 36 34 32 32 33 33 32 32 31 30 30 30 30 30 31 30 30 28 26 25 24 24 24 25 26 27 27 27 26 24 21 17 15 15 17 22 25 25 23 21 20 21 21 20 19 18 18 17 14 11 11 13 13 12 12 13 13 14 15 14 13
14 12 11 14 17 18 18 20 22 24 25 28 33 37 39 38 37 39 41 43 43 41 39 36 33 32 32 31 31 32 32 31 30 30 30 31 31 31 31 30 29 27 25 24 24 24 24 24 24 25 24 23 21 19 16 14 16 17 18 20 22 23 23 23 23 22 21 19 18 18 16 13 11 10 12 13 13 12 11 11 11 13 14 14 13
17 16 13 12 15 19 21 21 23 22 22 24 28 32 34 34 35 36 39 41 39 37 35 33 32 31 31 29 28 28 29 28 28 27 27 27 27 27 28 27 26 25 24 23 22 22 22 22 22 21 20 18 17 15 14 15 16 16 17 17 18 20 22 24 22 19 18 19 20 19 18 16 16 15 15 15 16 15 15 14 14 14 15 15 15
19 19 17 14 13 15 19 21 22 23 23 25 27 30 32 33 35 36 37 37 35 32 30 28 27 26 26 26 25 25 25 25 25 24 24 24 24 25 24 24 23 23 22 22 21 21 20 20 18 17 16 15 15 14 13 13 14 15 16 17 18 19 20 21 20 19 19 20 20 20 20 21 21 20 18 17 16 15 15 16 15 15 16 16 15
20 20 19 17 14 14 18 23 23 22 23 27 30 32 33 33 33 33 32 31 29 27 26 25 25 25 25 25 25 24 24 23 23 23 23 23 24 23 23 22 22 22 21 20 19 18 16 16 15 14 13 13 12 12 12 12 13 14 15 15 15 15 15 16 17 18 19 20 20 20 21 22 21 20 20 19 17 15 16 17 16 15 16 16 16
20 20 20 19 18 16 17 22 26 27 28 30 32 33 32 30 29 29 29 28 28 27 27 27 26 26 26 26 25 24 24 23 23 23 23 23 23 23 22 21 20 19 17 16 15 14 13 13 14 14 13 12 11 12 13 14 15 15 14 14 14 13 13 15 16 18 19 20 20 21 21 21 20 20 20 20 18 17 17 17 16 16 16 16 16
20 20 20 19 19 18 17 18 22 26 29 31 33 34 34 32 31 30 29 28 28 28 27 27 26 26 26 25 24 24 23 22 22 22 22 21 21 20 19 18 17 16 15 14 14 15 15 16 16 15 15 14 15 16 17 17 17 17 16 16 15 15 15 16 17 18 19 20 20 21 21 21 19 18 19 19 18 17 17 17 17 17 17 17 17
17 19 20 19 19 19 18 16 17 19 22 25 29 32 34 34 34 32 30 29 28 28 27 27 27 26 25 24 23 22 21 21 21 21 20 20 19 18 17 16 16 15 15 16 16 17 18 18 18 17 17 17 18 18 18 18 18 17 16 16 15 15 16 16 16 16 17 18 18 19 20 19 18 17 17 18 18 17 17 17 17 18 18 18 18
13 15 17 17 16 16 17 17 17 17 17 19 23 26 28 30 31 31 30 29 29 28 28 27 26 24 23 22 21 20 20 20 20 20 20 19 18 16 15 14 14 15 15 16 17 17 17 17 18 18 18 18 18 18 18 17 16 15 15 14 14 14 14 14 14 14 14 14 15 16 17 16 16 16 16 16 16 17 17 17 18 18 19 19 19
Wind_Direction
214 215 216 217 218 219 220 220 220 219 219 220 221 222 224 225 226 228 228 227 223 221 222 221 219 217 215 212 209 211 214 213 212 212 211 209 207 205 204 209 214 212 207 206 209 208 202 205 211 215 219 223 221 224 234 246 252 246 253 281 293 291 289 292 295 300 310 317 321 331 337 337 340 342 340 341 344 339 336 335 335 340 346 348 347
215 216 217 218 219 220 220 220 220 220 220 221 222 223 224 225 227 228 228 228 223 220 222 223 223 220 216 213 212 212 214 216 215 214 214 212 211 210 208 209 213 216 215 214 215 215 214 213 217 220 227 235 236 233 237 246 255 255 259 276 284 285 289 296 301 306 314 321 325 332 338 336 337 341 339 339 343 345 350 356 355 352 352 350 346
214 217 218 219 220 220 220 220 221 221 222 222 223 224 224 226 227 228 228 228 224 220 221 223 224 223 219 215 213 214 216 217 218 219 217 214 214 214 214 214 214 216 217 218 219 222 225 226 226 227 233 240 242 241 242 243 250 254 255 260 266 271 279 288 296 302 308 313 319 325 330 330 332 337 337 338 342 346 351 356 355 352 351 346 342
214 216 218 220 220 220 220 220 221 221 222 223 224 224 225 226 227 227 228 227 225 221 220 222 224 224 222 218 214 215 217 218 220 223 222 219 217 217 219 220 221 220 219 220 221 226 231 235 239 241 242 244 246 247 247 245 246 249 251 251 256 263 269 277 284 290 294 299 307 318 324 326 330 335 337 338 341 344 347 349 349 347 344 338 336
215 216 218 220 220 220 220 220 220 220 221 222 223 224 225 225 226 226 226 225 223 220 218 220 222 224 224 221 216 215 218 219 220 223 225 224 221 220 221 224 227 228 226 223 223 225 231 237 243 247 248 249 251 253 254 253 250 251 252 250 250 255 258 263 270 276 283 292 304 316 321 324 327 333 336 336 337 340 343 343 341 339 334 331 331
214 216 218 219 219 219 219 219 219 219 220 221 222 223 224 224 224 224 223 222 221 220 218 219 220 223 225 223 219 217 219 221 222 224 226 225 224 223 224 225 228 232 233 231 229 228 232 238 241 245 249 252 254 256 257 259 259 258 256 256 257 257 259 264 272 280 288 296 305 312 316 320 323 330 336 333 330 334 337 335 333 330 327 326 326
212 214 216 216 217 217 218 218 218 218 219 221 221 221 221 222 222 222 222 219 218 218 218 219 220 223 225 224 222 220 220 222 224 226 227 226 225 225 225 227 229 233 236 237 236 235 237 240 242 244 248 252 255 257 258 260 262 264 262 262 264 265 266 272 279 285 290 294 299 305 312 317 318 323 330 327 326 331 329 325 325 324 322 322 323
211 213 214 215 216 216 217 217 217 217 218 220 221 220 219 219 221 222 222 218 215 216 218 219 220 223 225 226 224 222 222 223 225 227 228 228 228 227 227 228 229 233 237 239 240 241 241 243 245 247 250 254 257 258 259 260 261 264 267 268 269 270 271 274 276 279 283 288 295 302 308 312 315 320 323 323 325 326 321 317 318 317 318 320 325
211 212 214 216 216 216 217 217 216 216 217 218 219 219 219 218 219 221 222 219 216 215 218 220 220 222 224 226 226 224 223 224 226 228 229 230 230 230 230 229 230 232 236 239 242 244 245 246 249 250 251 254 258 259 260 260 261 264 267 268 270 270 271 272 273 276 281 286 294 300 303 307 313 317 318 320 320 317 314 313 313 314 316 320 330
211 212 214 216 217 216 216 216 216 215 216 217 218 218 218 217 217 220 222 220 216 214 216 219 221 222 224 225 226 226 226 226 227 229 230 231 231 232 233 232 232 233 236 239 242 244 247 249 251 252 253 256 258 259 260 262 264 266 267 268 269 269 271 273 274 277 281 285 291 297 299 305 314 315 313 315 315 311 311 311 312 316 319 321 330
212 212 214 216 217 217 216 215 216 215 215 216 217 217 217 216 216 218 220 220 217 214 214 218 221 223 224 225 226 227 228 229 230 231 232 233 233 235 236 236 236 237 239 240 243 245 247 250 251 252 255 257 257 257 261 264 266 269 271 272 273 273 273 274 275 278 279 282 288 293 295 302 312 313 310 312 312 309 308 310 313 319 322 324 330
214 213 214 216 217 218 216 215 216 216 216 216 216 216 216 215 214 215 218 220 218 214 213 216 221 223 224 226 227 228 230 231 232 233 234 234 235 237 239 240 241 241 242 243 246 247 249 250 252 254 255 256 254 252 255 257 260 264 268 272 276 277 276 276 276 277 277 279 285 290 293 300 307 309 309 310 307 305 307 312 315 319 322 324 328
216 215 215 216 217 218 218 218 217 217 216 216 216 216 215 214 213 213 215 218 218 216 214 214 219 224 225 226 229 230 231 232 233 235 235 236 236 237 238 240 242 244 245 246 248 249 251 252 253 254 256 256 252 250 250 253 256 259 263 267 270 271 273 275 276 276 276 278 283 288 294 298 300 304 308 304 300 304 309 313 315 317 320 322 327
217 218 217 217 218 219 220 220 219 218 217 216 216 216 214 214 213 212 213 216 218 218 216 213 216 221 226 228 230 233 234 233 233 234 236 236 237 237 238 239 241 244 246 248 249 250 252 253 254 254 256 256 253 250 249 252 255 258 260 263 263 266 270 273 275 277 278 280 284 288 293 294 295 301 304 298 297 304 309 310 314 317 318 320 326
219 220 219 218 219 220 221 221 220 219 218 216 216 216 215 214 213 211 212 215 218 220 218 215 214 217 223 227 230 234 237 237 235 235 236 237 237 238 239 239 240 242 244 246 249 250 251 252 254 256 257 255 252 247 245 247 251 255 258 259 261 265 269 272 275 278 280 282 283 285 289 292 295 298 299 297 299 303 305 308 314 317 316 317 323
221 223 221 219 218 220 222 222 220 219 218 217 215 215 215 214 212 211 211 214 218 220 220 218 215 215 219 224 228 232 237 239 239 238 238 238 238 238 239 240 241 241 242 243 245 248 251 252 254 256 257 257 253 247 244 244 248 252 255 257 259 263 267 272 276 277 279 281 280 281 286 292 294 294 294 296 298 301 301 304 311 314 312 312 318
223 224 224 222 219 219 222 222 220 219 219 217 216 215 215 214 213 211 211 213 216 219 220 220 219 217 217 221 226 230 234 237 239 240 240 239 238 238 238 240 241 241 242 242 243 246 249 252 254 256 257 258 256 252 248 246 247 250 252 256 258 260 265 270 273 275 277 278 279 282 287 289 289 288 288 291 295 296 296 301 310 310 305 306 314
226 227 227 226 222 219 220 222 221 220 220 219 218 216 215 215 214 212 211 212 215 217 219 220 220 219 218 219 222 226 230 234 237 238 239 240 239 239 239 239 240 241 242 242 241 243 246 249 252 255 257 260 260 258 255 253 252 252 253 255 257 259 264 269 272 275 277 278 280 283 285 285 284 282 283 287 290 290 293 302 309 304 297 301 310
231 230 230 230 225 220 220 222 222 222 222 221 219 217 216 216 214 213 212 212 214 216 218 219 219 220 220 220 221 223 226 230 234 236 237 238 239 240 240 239 240 241 242 243 242 241 243 246 248 251 255 259 260 260 258 256 256 256 256 256 256 260 265 269 272 275 277 278 281 281 281 281 280 279 281 283 286 289 296 304 303 294 292 296 304
238 235 234 233 229 224 221 221 222 224 224 222 220 219 217 216 215 213 212 212 213 215 217 219 219 220 221 221 221 222 223 225 229 232 234 236 237 238 238 238 240 243 246 248 247 244 243 244 246 249 253 256 258 259 259 258 258 259 258 256 257 262 267 269 270 273 274 276 278 278 277 277 276 276 277 281 287 291 292 295 294 287 284 287 299
246 238 234 234 232 228 223 221 221 223 223 223 221 219 218 217 216 215 213 212 212 213 216 219 219 219 221 222 222 222 223 224 226 228 231 233 233 234 235 238 242 247 251 253 253 252 250 248 248 250 252 255 256 258 259 260 261 261 260 260 263 267 269 269 270 271 272 274 275 276 275 274 274 275 277 282 288 287 280 277 275 273 274 282 300
255 243 234 232 232 229 225 222 220 220 221 222 221 219 218 218 217 216 214 213 212 212 214 217 219 219 220 221 222 223 225 226 228 228 230 231 232 233 236 240 245 249 252 254 255 256 256 255 253 252 252 254 255 257 260 262 263 263 264 265 267 268 269 269 270 271 271 272 271 271 270 271 273 275 279 287 291 288 280 266 257 263 274 289 307
260 251 237 231 231 230 226 222 220 218 218 220 221 220 218 217 218 217 216 215 214 213 213 215 217 218 218 220 222 223 225 227 230 230 230 231 233 234 237 242 246 248 250 253 255 257 260 260 258 256 254 254 254 256 258 260 262 264 266 267 267 267 267 268 268 269 269 268 267 265 265 268 271 273 280 288 288 285 283 275 267 271 282 296 307
258 253 242 232 230 229 227 224 221 218 217 218 220 220 218 217 217 218 217 216 215 214 213 214 216 217 217 219 220 222 224 226 230 232 232 232 232 234 237 240 243 246 249 252 256 258 260 259 258 258 257 257 256 256 257 258 260 262 264 264 264 263 263 263 264 266 266 266 265 264 264 266 268 271 277 282 278 275 276 277 275 275 280 293 301
255 251 242 233 228 227 225 223 221 219 217 217 218 219 218 217 218 218 218 217 216 215 214 214 215 216 217 218 219 221 223 225 228 231 232 232 232 233 235 238 240 243 246 250 254 257 258 258 258 258 258 258 258 258 257 257 259 261 262 260 257 256 258 259 260 262 263 264 265 265 266 268 269 272 275 276 271 267 268 268 267 269 276 286 292
254 248 240 231 226 224 221 219 219 218 217 217 218 219 218 218 219 218 217 217 217 216 215 214 214 215 216 218 220 222 223 224 226 228 229 230 231 232 235 237 239 241 244 248 251 254 256 256 257 258 258 259 259 259 259 259 260 260 259 257 254 253 254 256 258 261 263 266 269 272 274 275 273 271 270 270 266 264 263 261 260 264 272 278 279
252 246 237 229 224 220 218 217 217 216 216 217 218 218 219 219 220 219 217 217 217 216 216 215 214 214 215 216 219 222 223 224 225 226 226 227 229 231 233 236 238 239 241 244 246 249 251 252 254 255 257 258 258 258 258 257 256 255 255 255 255 256 257 258 260 263 267 271 274 276 278 277 271 264 262 263 262 259 256 253 254 259 265 266 263
249 243 234 225 221 218 216 216 216 215 215 216 217 217 218 219 220 220 219 217 216 215 215 215 215 215 214 214 215 218 221 223 226 228 228 228 228 228 229 232 233 235 237 240 243 245 247 249 250 252 253 254 255 255 254 254 252 251 252 253 256 258 259 260 260 263 268 273 274 273 271 267 261 257 257 257 254 250 247 248 252 256 257 256 251
247 240 230 222 220 217 215 215 215 214 214 215 217 219 220 220 221 222 222 220 219 217 215 215 216 216 216 215 215 215 217 222 228 231 232 232 232 232 233 234 235 236 238 241 243 244 244 245 247 249 250 251 252 252 252 252 251 250 250 250 253 256 258 259 261 264 270 275 274 267 260 256 253 251 252 251 247 244 246 251 257 262 262 258 250
244 236 226 220 218 216 213 212 213 213 214 215 217 219 221 223 224 224 223 223 222 221 219 218 219 219 219 219 220 221 223 227 230 232 234 235 236 239 241 242 242 243 243 242 241 241 243 244 245 247 249 251 252 253 252 251 250 249 249 249 251 253 256 259 262 265 270 273 270 262 253 249 246 247 249 248 243 242 246 252 263 273 270 259 246
241 233 224 219 218 216 212 210 210 212 213 215 217 218 220 222 224 224 224 224 224 224 224 223 223 223 223 224 226 227 230 232 233 234 235 236 237 239 241 242 243 244 245 242 238 238 240 241 243 245 248 250 252 255 256 255 253 250 249 249 251 253 255 259 263 267 270 269 262 254 248 245 246 247 247 243 239 240 245 251 260 264 256 248 241
237 230 223 220 219 216 212 210 210 211 212 214 216 218 220 221 222 223 224 224 224 225 225 225 226 227 227 229 230 230 230 231 232 235 236 236 237 238 239 240 240 240 240 239 239 239 240 241 243 246 247 249 252 255 257 259 258 254 251 249 251 253 256 260 264 267 265 259 252 247 244 245 248 245 240 236 235 237 239 244 252 254 248 241 238
236 228 219 213 211 209 207 208 210 211 212 214 216 218 220 221 221 221 221 222 223 223 223 224 225 227 229 231 232 233 234 233 233 235 235 236 237 237 237 238 238 236 235 234 235 237 239 241 244 247 250 252 254 255 257 260 261 258 255 253 254 256 259 260 261 260 254 245 241 240 240 243 244 240 236 234 234 234 236 242 248 246 239 235 234
243 235 223 214 210 209 209 210 211 212 213 215 217 220 221 221 220 220 220 219 219 219 220 221 223 225 227 229 230 233 235 235 235 235 234 234 234 233 231 231 230 229 228 228 230 233 235 237 241 244 248 252 254 256 258 259 258 256 255 256 257 259 257 253 250 249 241 231 230 235 237 239 241 238 233 230 229 232 238 240 232 223 223 228 232
250 245 233 223 217 215 215 216 215 217 219 219 220 223 223 220 219 221 221 220 218 217 217 218 220 222 224 226 228 229 230 231 231 232 231 229 227 225 222 222 223 223 222 222 225 229 233 236 239 243 247 251 254 256 259 260 258 253 250 249 250 251 250 246 243 240 231 224 226 230 231 234 236 234 229 227 229 235 239 226 210 210 222 229 232
252 247 238 228 220 217 218 219 219 220 221 221 220 222 223 220 219 222 223 221 218 217 216 216 217 219 220 222 224 224 224 224 224 226 226 225 224 221 219 220 222 223 223 223 224 227 231 235 239 243 247 250 253 256 259 260 256 246 240 240 241 243 243 241 238 234 228 223 225 227 227 227 226 224 225 228 229 225 214 204 205 216 224 227 231
250 244 239 232 225 219 219 220 221 221 222 220 219 218 218 219 221 222 221 219 217 217 217 216 215 215 215 217 218 219 219 220 220 220 221 222 222 223 224 225 226 226 227 228 229 231 233 235 237 240 244 250 255 256 256 254 248 241 237 239 238 236 238 240 239 234 227 221 222 224 224 222 222 221 219 214 206 197 195 203 215 221 222 227 236
249 240 236 233 227 223 222 222 222 222 221 221 219 217 214 214 218 220 220 218 217 217 217 216 215 215 214 214 215 216 217 218 217 215 215 217 218 221 224 227 230 231 232 233 234 234 236 237 238 242 248 255 259 257 252 250 248 245 242 241 239 235 233 233 230 223 217 219 228 230 223 219 221 219 208 199 199 205 211 215 219 220 223 234 246
248 234 231 229 225 224 226 227 225 223 220 218 218 218 214 209 210 215 218 218 217 217 218 217 216 216 216 216 215 214 215 217 217 217 217 217 218 220 222 224 226 228 230 232 233 234 237 240 243 248 254 257 260 260 257 256 256 253 247 243 238 230 224 222 222 220 220 227 234 229 217 213 215 212 206 207 215 219 217 215 214 216 223 238 251
215 216 221 223 221 222 225 227 227 226 222 217 216 215 210 205 204 209 216 218 218 218 218 217 216 217 217 217 216 216 216 217 218 218 219 219 218 219 219 220 221 223 226 228 229 231 235 240 245 251 254 257 261 264 264 263 264 263 256 244 233 225 222 225 230 231 227 225 221 215 209 208 209 210 214 222 226 221 218 218 215 216 225 240 247
114 159 185 202 211 217 222 224 225 226 222 218 215 212 207 203 202 205 212 218 218 218 217 216 216 217 216 215 216 218 219 219 219 218 217 217 217 218 219 219 220 222 224 225 227 229 234 241 247 250 251 253 257 260 261 261 262 259 245 227 223 224 222 222 226 228 225 218 215 212 207 205 206 212 223 231 226 219 221 222 219 220 228 235 235
112 142 159 176 190 204 213 216 219 221 220 217 213 209 205 203 201 200 204 212 218 218 215 213 213 213 211 211 212 215 216 218 217 215 214 214 215 217 218 218 219 221 223 226 230 234 238 241 241 241 243 245 249 252 254 254 253 245 226 213 215 219 216 212 214 218 217 213 212 211 208 207 211 220 229 228 219 214 217 220 222 229 236 237 236
88 127 147 160 168 179 195 202 207 212 216 216 211 205 202 201 199 196 197 205 212 213 209 206 205 205 205 206 209 211 213 214 213 212 212 212 212 215 217 219 221 224 227 231 235 236 236 234 231 230 232 236 239 242 242 235 225 212 200 195 196 196 195 193 191 192 194 196 199 204 208 209 212 216 215 213 214 214 215 220 228 237 243 245 248
67 89 113 129 134 140 158 178 187 193 199 203 202 199 197 199 199 195 194 197 200 200 197 195 195 196 196 198 202 206 208 210 210 211 212 212 213 215 218 221 224 226 227 227 227 228 229 229 228 228 229 229 230 229 220 202 190 185 183 183 182 184 189 190 187 186 189 190 190 191 190 189 193 197 196 201 210 212 212 217 225 230 235 241 245
56 65 77 94 106 114 128 148 163 167 167 173 180 183 185 189 190 186 183 185 185 182 179 180 182 186 187 189 193 197 199 200 201 204 206 207 208 209 210 212 216 218 218 218 219 221 224 225 224 223 220 218 217 214 200 186 183 185 186 185 183 185 192 195 193 191 191 189 186 182 178 181 191 196 196 203 213 217 219 224 227 227 229 235 239
45 56 64 75 89 99 107 121 139 149 145 142 148 153 158 163 166 165 165 168 170 168 167 169 174 180 184 186 188 189 189 190 193 195 198 200 202 202 202 204 206 208 209 210 212 214 215 213 211 210 207 204 203 203 197 190 189 189 186 183 182 186 193 197 195 193 190 188 186 186 186 190 195 197 199 206 212 213 215 220 224 225 228 233 236
39 49 58 70 83 95 100 104 114 124 127 127 131 135 137 142 146 149 151 155 158 158 159 164 169 173 177 180 182 183 184 187 190 192 193 193 194 194 195 197 199 200 200 200 200 201 200 197 194 195 195 193 193 195 193 190 190 190 187 184 185 189 194 195 195 194 193 191 190 193 196 198 202 204 206 209 211 213 216 220 225 230 234 238 243
40 48 56 66 76 86 96 103 109 115 119 121 124 126 128 132 136 139 141 143 145 147 150 154 158 161 165 168 169 172 175 178 180 182 183 182 182 183 184 186 187 187 186 184 183 181 178 174 172 172 172 172 175 180 183 184 185 185 183 181 181 184 190 194 196 197 197 197 198 201 202 202 206 210 212 213 216 222 227 230 234 240 244 248 253
40 47 52 60 69 77 85 94 103 111 116 120 122 124 128 132 135 136 138 139 142 145 149 152 154 157 160 162 163 164 166 168 169 171 172 171 171 172 173 173 171 171 170 169 168 164 161 160 159 158 157 159 164 168 170 173 175 176 177 178 180 184 191 195 196 197 199 202 205 207 207 209 215 223 226 225 227 233 238 241 244 249 253 256 260
43 50 52 56 64 75 83 89 96 103 111 118 121 122 124 128 132 136 140 143 145 147 151 155 157 158 160 162 162 162 163 163 163 164 165 166 167 167 168 167 166 165 164 164 163 162 159 157 156 156 157 160 163 165 167 170 173 175 178 180 183 187 191 194 195 198 202 207 211 215 218 222 227 231 232 233 235 240 245 248 250 253 256 258 260
52 60 64 64 67 73 82 91 99 105 110 116 119 119 119 120 124 130 135 139 140 141 144 149 151 152 152 154 155 154 153 153 154 156 158 159 160 160 159 157 156 154 153 153 155 156 156 156 157 161 164 166 169 172 174 176 177 178 180 181 183 186 189 193 197 201 206 210 215 220 223 224 226 227 230 234 238 243 246 249 252 254 256 258 260